Regional Weather Roundup
Issued by NWS Little Rock, AR

Home | Current Version | Previous Version | Graphics & Text | Print | Product List | Glossary On
Versions: 1 2 3 4 5 6 7 8 9 10 11 12 13 14 15 16 17 18 19 20 21 22 23 24 25 26 27 28 29 30 31 32 33 34 35 36 37 38 39 40 41 42 43 44 45 46 47 48 49 50
000
ASUS44 KLZK 291105
RWRLZK

WEATHER ROUNDUP FOR ARKANSAS
NATIONAL WEATHER SERVICE LITTLE ROCK AR
600 AM CDT SAT AUG 29 2015

NOTE: "FAIR" INDICATES FEW OR NO CLOUDS BELOW 12,000 FEET WITH NO
SIGNIFICANT WEATHER AND/OR OBSTRUCTIONS TO VISIBILITY.

ARZ001-003-010-029-291200-
NORTHWEST ARKANSAS

CITY           SKY/WX    TMP DP  RH WIND       PRES   REMARKS
FAYETTEVILLE   CLOUDY    69  62  78 S6        30.01S
FORT SMITH     MOCLDY    72  64  76 NE6       30.00R
BENTONVILLE    MOCLDY    66  59  77 S5        30.00S
ROGERS         MOCLDY    68  62  81 SE7       30.01S
SILOAM SPGS    MOCLDY    68  57  68 S5        29.99S
HIGHFILL       CLOUDY    70  62  76 S7        30.00S
SPRINGDALE     CLOUDY    70  61  73 S3        30.03
$$

ARZ004-005-016-291200-
NORTH CENTRAL ARKANSAS

CITY           SKY/WX    TMP DP  RH WIND       PRES   REMARKS
BATESVILLE     CLOUDY    66  63  88 CALM      30.04S
FLIPPIN        CLOUDY    66  61  82 CALM      30.01S
MTN HOME       LGT RAIN  65  63  93 S5        30.02S
$$

ARZ040-041-291200-
WEST CENTRAL ARKANSAS

CITY           SKY/WX    TMP DP  RH WIND       PRES   REMARKS
MENA           CLOUDY    70  68  94 CALM      30.04S
MOUNT IDA      LGT RAIN  66  65  96 CALM      30.02R FOG
$$

ARZ009-017-025-026-028-291200-
NORTHEAST ARKANSAS

CITY           SKY/WX    TMP DP  RH WIND       PRES   REMARKS
JONESBORO      CLOUDY    68  67  96 CALM      30.03R
NEWPORT        CLOUDY    69  68  97 CALM      30.04S
WALNUT RIDGE   CLOUDY    70  64  83 CALM      30.03S
BLYTHEVILLE    CLOUDY    72  69  90 S7        30.03S
$$

ARZ022-023-033-042-044-291200-
CENTRAL ARKANSAS

CITY           SKY/WX    TMP DP  RH WIND       PRES   REMARKS
LITTLE ROCK    MOCLDY    69  63  81 CALM      30.03R
N LITTLE ROCK    N/A     70  64  80 CALM      30.03R
JACKSONVILLE   MOCLDY    66  63  90 CALM      30.02S
SEARCY         CLOUDY    66  64  93 CALM      30.05R
HOT SPRINGS    MOCLDY    66  63  90 NW3       30.03S
RUSSELLVILLE   CLOUDY    68  66  93 SE3       30.02S
$$

ARZ036-291200-
EAST ARKANSAS

CITY           SKY/WX    TMP DP  RH WIND       PRES   REMARKS
WEST MEMPHIS   MOCLDY    68  67  96 S5        30.02R
$$

ARZ050-053-066-070-073-291200-
SOUTHWEST ARKANSAS

CITY           SKY/WX    TMP DP  RH WIND       PRES   REMARKS
ARKADELPHIA    FAIR      64  64 100 CALM      30.02S
CAMDEN         MOCLDY    64  61  88 CALM      30.01S
TEXARKANA      MOCLDY    69  63  81 S3        30.02R
EL DORADO      PTCLDY    64  61  90 CALM      30.03R
DE QUEEN       CLOUDY    67  67 100 CALM      30.01R FOG
$$

ARZ056-057-069-291200-
SOUTHEAST ARKANSAS

CITY           SKY/WX    TMP DP  RH WIND       PRES   REMARKS
PINE BLUFF     CLOUDY    67  63  87 CALM      30.03R
STUTTGART      CLOUDY    72  63  73 CALM      30.02S
MONTICELLO     MOCLDY    65  63  93 CALM      30.03R

$$




USA.gov is the U.S. government's official web portal to all federal, state and local government web resources and services.